Tracking 32460 objects as of 12-Dec-2025
HD Live streaming from Space Station
objects crossing your sky now

SL-6 R/B(2)

Track SL-6 R/B(2) now!


NORAD ID: 10089
Int'l Code: 1977-047D
Perigee: 4,984.6 km
Apogee: 35,611.2 km
Inclination: 66.7 °
Period: 722.4 minutes
Semi major axis: 26668 km
RCS: 4.9235 m2 (large)
Launch date: June 16, 1977
Source: Commonwealth of Independent States (former USSR) (CIS)
Launch site: PLESETSK MISSILE AND SPACE COMPLEX (PKMTR)

Note: This is a ROCKET BODY
Your satellite tracking list
Your tracking list is empty




NASA's NSSDC Master Catalog

Two Line Element Set (TLE):
1 10089U 77047D   25335.14925161  .00000273  00000-0  00000+0 0  9991
2 10089  66.6642 107.9821 5742007 306.6913  13.1645  1.99340369256503
Source of the keplerian elements: AFSPC